Content
SEND FEEDBACK

Daily
Averages
Monthly
Summary
United States of America

BROOKVILLE, FLORIDA


Home > North America > United States > Florida
Elevation: 75 feet     Latitude: 28 29N     Longitude: 082 27W

WEATHER
 
SELECT A DAY
Number of Records: 206,273;   Date Range: 7/1/96 - 7/27/14
 
SHARE

PRINT THIS DATA

[ ← Previous Day ]
WEATHER ALMANAC - FEBRUARY 5, 2013
[ Next Day → ]
[ °C ]   °F
Weather ElementAverageHighLow
Temperature56.5 °F75.9 °F (2:53 pm)34 °F (2:53 am)
Dewpoint42.2 °F51.1 °F (7:53 pm)32 °F (2:53 am)
Humidity63.5 %92 % (2:53 am)34 % (10:53 am)
Barometer30.07 in30.13 in (9:53 am)30.03 in (2:53 pm)
Wind Speed2.7 mph10.4 mph (3:53 pm)
Weather ElementAverage
Visibility10 mi
Wind DirectionENE (64.5 °)

Weather ElementTotal
Precipitation---
Heating Degree Days10.1 (Base 65)
Growing Degree Days5 (Base 50)
Averaged from 22 records on February 5, 2013
WEATHER CONDITIONS BREAKOUT
WIND DIRECTION BREAKOUT
WEATHER BY HOUR - FEBRUARY 5, 2013
[ °C ]   °F
Local TimeTemperatureDewpointHumidityBarometerVisibilityWind DirectionWind SpeedGust SpeedPrecipitationEventsConditions
1:53 AM37.9 °F34.0 °F86 %30.06 in10.0 miCalmClear
2:53 AM34.0 °F32.0 °F92 %30.04 in10.0 miCalmClear
3:53 AM37.0 °F34.0 °F89 %30.06 in10.0 miNNW (330°)4.6 mphClear
4:53 AM35.1 °F32.0 °F89 %30.05 in10.0 miCalmClear
5:53 AM35.1 °F33.1 °F92 %30.06 in10.0 miCalmClear
6:53 AM37.0 °F34.0 °F89 %30.07 in10.0 miCalmScattered Clouds
7:53 AM39.0 °F35.1 °F86 %30.09 in10.0 miCalmClear
8:53 AM55.9 °F37.9 °F51 %30.12 in10.0 miNE (40°)4.6 mphClear
9:53 AM63.0 °F36.0 °F37 %30.13 in10.0 miVariable3.5 mphClear
10:53 AM66.9 °F37.9 °F34 %30.13 in10.0 miCalmClear
11:53 AM71.1 °F43.0 °F36 %30.11 in10.0 miCalmClear
12:53 PM73.0 °F46.0 °F38 %30.08 in10.0 miVariable5.8 mphClear
1:53 PM73.9 °F46.9 °F38 %30.04 in10.0 miVariable3.5 mphClear
2:53 PM75.9 °F46.0 °F35 %30.03 in10.0 miWSW (240°)6.9 mphClear
3:53 PM73.9 °F48.9 °F41 %30.03 in10.0 miWest (280°)10.4 mphClear
4:53 PM71.1 °F50.0 °F47 %30.04 in10.0 miWest (270°)10.4 mphClear
5:53 PM69.1 °F50.0 °F51 %30.04 in10.0 miWest (260°)9.2 mphPartly Cloudy
6:53 PM64.0 °F48.9 °F58 %30.04 in10.0 miCalmMostly Cloudy
7:53 PM62.1 °F51.1 °F67 %30.05 in10.0 miCalmOvercast
8:53 PM57.9 °F50.0 °F75 %30.06 in10.0 miCalmClear
9:53 PM57.0 °F51.1 °F81 %30.07 in10.0 miCalmPartly Cloudy
11:53 PM54.0 °F50.0 °F86 %30.07 in10.0 miCalmClear
Hourly data recorded from KBKV, located miles away from Brookville, Florida







STORIES FROM OUR PARTNERS